Home   Weather   Oroville   Past weeks
Flag for USA

Past Weather in Oroville, Washington, USA — Yesterday and Last 2 Weeks

Now
37 °F

Chilly.


Feels Like: 37 °F
Forecast: 58 / 41 °F
Wind: No wind

Location: Osoyoos

Current Time: Oct 15, 2019 at 5:00:30 am

Latest Report: Oct 15, 2019 at 3:00 am


Visibility: N/A

Pressure: 30.15 "Hg

Humidity: 89%

Dew Point: 35 °F

Location of OrovilleLocation

Past Weather in Oroville — Graph

°F

Oroville Temperature Yesterday

Maximum temperature yesterday: 60 °F (at 4:00 pm)
Minimum temperature yesterday: 31 °F (at 5:00 am)
Average temperature yesterday: 43 °F

High & Low Weather Summary for the Past Weeks

 TemperatureHumidityPressure
High65 °F (Oct 5, 5:00 pm)100% (Oct 14, 3:00 am)30.60 "Hg (Oct 14, 3:00 am)
Low24 °F (Oct 10, 6:00 am)23% (Oct 9, 2:00 pm)29.56 "Hg (Oct 7, 10:00 pm)
Average47 °F62%30.14 "Hg
* Reported Sep 30 3:00 am — Oct 15 3:00 am, Oroville. Weather by CustomWeather, © 2019

Note: Actual official high and low records may vary slightly from our data, if they occured in-between our weather recording intervals... More about our weather records

Advertising

Oroville Weather History for the Previous 24 Hours

Scroll right to see more
 ConditionsComfort  
Time TempWeatherWind HumidityBarometerVisibility
3:00 am
Tue, Oct 15
37 °FChilly.No wind89%30.15 "HgN/A
2:00 am38 °FChilly.1 mph87%30.15 "HgN/A
1:00 am39 °FChilly.1 mph90%30.15 "HgN/A
12:00 am38 °FChilly.1 mph86%30.17 "HgN/A
11:00 pm
Mon, Oct 14
40 °FChilly.No wind82%30.16 "HgN/A
10:00 pm43 °FQuite cool.No wind78%30.15 "HgN/A
9:00 pm44 °FQuite cool.No wind80%30.16 "HgN/A
8:00 pm44 °FQuite cool.1 mph78%30.12 "HgN/A
7:00 pm45 °FCool.2 mph81%30.12 "HgN/A
6:00 pm53 °FCool.1 mph62%30.10 "HgN/A
5:00 pm60 °FRefreshingly cool.2 mph33%30.08 "HgN/A
4:00 pm60 °FRefreshingly cool.2 mph38%30.08 "HgN/A
3:00 pm59 °FRefreshingly cool.2 mph39%30.09 "HgN/A
2:00 pm57 °FRefreshingly cool.2 mph48%30.10 "HgN/A
1:00 pm54 °FCool.2 mph50%30.11 "HgN/A
12:00 pm50 °FCool.2 mph59%30.14 "HgN/A
11:00 am47 °FCool.1 mph71%30.14 "HgN/A
10:00 am40 °FQuite cool.1 mph94%30.14 "HgN/A
9:00 am38 °FChilly.1 mph97%30.14 "HgN/A
8:00 am39 °FChilly.1 mph96%30.13 "HgN/A
7:00 am35 °FChilly.1 mph96%30.11 "HgN/A
6:00 am32 °FChilly.2 mph96%30.09 "HgN/A
5:00 am31 °FChilly.2 mph99%30.06 "HgN/A
Weather by CustomWeather, © 2019

See weather overview